Location: Cabeza de los Veneras
(40.2000°N, 5.2000°W)
Time: 02:38:20
(UTC+00:00)

BlueWalker 3 - Pass Details

Date: 18 April 2024
Orbit: 481 x 494 km, 53.2° (Epoch: 25 May)

Event Time Altitude Azimuth Distance (km) Brightness Sun altitude
Rises 20:34:01 0° 240° (WSW) 2,558 5.9 -16.7°
Reaches altitude 10° 20:36:13 10° 245° (WSW) 1,682 5.0 -17.1°
Maximum altitude 20:39:57 54° 324° (NW) 604 2.6 -17.7°
Drops below altitude 10° 20:43:43 10° 43° (NE) 1,697 4.5 -18.3°
Enters shadow 20:45:06 - 46° (NE) 2,243 5.1 -18.5°
